Weather in Fedulov

Russia / Rostov Oblast     47°15′35″N   40°27′47″E
temp.,
°C
wind,
m/s
gust,
m/s
humid.,
%
clouds,
%
prec.,
mm/h
press.,
hPa
HPBL,
m
16 may, sun
sun1600:00+18nnw33815 0.1 101229
03:00+17nne33875 0.1 101129
06:00+18ene2488100 0.0 101187
09:00+22e4672100 0.0 1011467
12:00+25ese71047100 0.0 1010837
15:00+27ese61252100 0.0 10081365
18:00+24ene3766100 0.0 1006137
21:00+23ese8193798 0.0 1006543
17 may, mon
mon1700:00+18e616545 0.0 1005368
03:00+16e513581 0.0 1006254
06:00+14ene41070100 0.0 1006215
09:00+20se576081 0.0 1007548
12:00+24ese33547 0.0 1008782
15:00+26ese225387 0.0 10071073
18:00+25w13655 0.1 1007550
21:00+18nnw3585100 0.4 100893
18 may, tue
tue1800:00+17wnw3893100 0.8 1009217
03:00+16w4995100 0.8 1009344
06:00+16w51095100 0.1 1009470
09:00+18w568223 0.1 1009623
12:00+22w666896 0.0 10091191
15:00+19sw7981100 0.5 1009508
18:00+19wsw478397 3.6 1010622
21:00+15w339298 3.7 101045
19 may, wed
wed1900:00+14sw229398 0.0 101028
03:00+13s389398 0.0 1010152
06:00+15ssw4109296 0.1 1010661
09:00+18sw7973100 0.3 10111156
12:00+20sw8106324 0.7 10121786
15:00+19sw9126535 2.0 10131794
18:00+17wsw713704 0.4 10141440
21:00+13ssw410830 0.4 1015191
20 may, thu
thu2000:00+13sw513780 0.0 1016305
03:00+11sw399095 0.0 1016169
06:00+12ssw35905 0.0 1016138
09:00+18s346551 0.0 1016670
12:00+21se3351100 0.0 10151226
15:00+22ese555553 0.0 10141266
18:00+21e5970100 0.0 1013436
21:00+17ene411824 0.0 1012189